TOURFACTS.DK  
Stats and Facts from Tour de France.

Tour de France 2017 starts in 5 days
  Riders   Stages   Teams   Summits   Yearly  


 
Search by year

 After:  2016 - Stage 21:
  14626 starters.
  5086 different riders.
  634 teams.
  2211 stages.
  454 restdays.
  436049.60 km.
  5622 abandonnees.


Top 3
Christopher Froome89:04:48
Romain Bardet89:08:53
Nairo Quintana89:09:09
Rafal Majka209 pt.
Thomas De Gendt130 pt.
Jarlinson Pantano ..121 pt.
Peter Sagan470 pt.
Marcel Kittel228 pt.
Michael Matthews199 pt.
Adam Yates89:09:30
Louis Meintjes89:11:46
Emanuel Buchmann89:52:28
Facts from Tour de France 1938
  |   Stages.  |   Stage winners.  |   Days in yellow  |   Average speed.  |   Route.  |   Teams.  |   All riders.  |   Rookies.  |   Withdrawls.  |  

  |   GC.  |   Polka  |   Green  |   White  |   Summits. (In tour)  |   Summits. (Points)  |   Miscellaneous.  |  

Stage 20c on 29 - 07 - 1938
         Owning:    Gino Bartali    
Pick a stage:  1 2 3 4a 4b 4c 5 6a 6b 7 8 9 10a 10b 10c 11 12 13 14 15 16 17a 17b 18 19 20a 20b 20c 21
  Saint-QuentinLille | Dist: 107.00 km.

Average speed for all riders in stage:  32,826 km./hr.
    Place:Name:Team:Time:Km/h:
BELFrançois NeuvilleBELBelgium03:07:12  +  00:00:00=34,295 
FRAJean FréchautFRAFrance03:08:31  +  00:01:19=34,055 
BELConstant LauwersBELBelgium03:08:31  +  00:01:19=34,055 
4 LUXJean MajerusLUXLuxembourg03:12:21  +  00:05:09=33,377 
5 ITAAldo BiniITAItaly03:14:37  +  00:07:25=32,988 
6 ITAGlauco ServadeiITAItaly03:14:37  +  00:07:25=32,988 
7 FRAPierre JaminetFRAFrance03:14:37  +  00:07:25=32,988 
8 FRAAndré LeducqFRACadets03:14:37  +  00:07:25=32,988 
9 CHEPaul EgliCHESwitzerland03:14:37  +  00:07:25=32,988 
10 BELSylvère MaesBELBelgium03:14:37  +  00:07:25=32,988 
11 NLDAntoon Van SchendelNLDHolland03:14:37  +  00:07:25=32,988 
12 BELMarcel KintBELBelgium03:14:37  +  00:07:25=32,988 
13 BELEdward VissersBELBelgium03:14:37  +  00:07:25=32,988 
14 BELFélicien VervaeckeBELBelgium03:14:37  +  00:07:25=32,988 
15 BELAlbertin DisseauxBELBelgium03:14:37  +  00:07:25=32,988 
16 BELEmile Masson jr.BELBelgium03:14:37  +  00:07:25=32,988 
17 BELJules LowieBELBelgium03:14:37  +  00:07:25=32,988 
18 ITAGino BartaliITAItaly03:14:37  +  00:07:25=32,988 
19 ITAVasco BergamaschiITAItaly03:14:37  +  00:07:25=32,988 
20 ITAMario ViciniITAItaly03:14:37  +  00:07:25=32,988 
21 ITAGiuseppe MartanoITAItaly03:14:37  +  00:07:25=32,988 
22 DEUHerbert HauswaldDEUGermany03:14:37  +  00:07:25=32,988 
23 DEUReinhold WendelDEUGermany03:14:37  +  00:07:25=32,988 
24 DEUJosef ArentsDEUGermany03:14:37  +  00:07:25=32,988 
25 FRAAntonin MagneFRAFrance03:14:37  +  00:07:25=32,988 
26 LUXArsène MerschLUXLuxembourg03:14:37  +  00:07:25=32,988 
27 FRAPierre GallienFRAFrance03:14:37  +  00:07:25=32,988 
28 FRAVictor CossonFRAFrance03:14:37  +  00:07:25=32,988 
29 FRAJean-Marie GoasmatFRAFrance03:14:37  +  00:07:25=32,988 
30 ESPMariano CañardoESPSpain03:14:37  +  00:07:25=32,988 
31 ESPJulián BerrenderoESPSpain03:14:37  +  00:07:25=32,988 
32 ESPRafael RamosESPSpain03:14:37  +  00:07:25=32,988 
33 NLDJanus HellemonsNLDHolland03:14:37  +  00:07:25=32,988 
34 FRAMathias ClemensLUXLuxembourg03:14:37  +  00:07:25=32,988 
35 NLDTheo MiddelkampNLDHolland03:14:37  +  00:07:25=32,988 
36 LUXFrançois NeuensLUXLuxembourg03:14:37  +  00:07:25=32,988 
37 CHERaymond LouviotFRACadets03:14:37  +  00:07:25=32,988 
38 FRAFabien GalateauFRACadets03:14:37  +  00:07:25=32,988 
39 FRARobert TanneveauFRACadets03:14:37  +  00:07:25=32,988 
40 FRARobert OubronFRACadets03:14:37  +  00:07:25=32,988 
41 FRAJean FontenayFRACadets03:14:37  +  00:07:25=32,988 
42 FRARaymond PassatFRACadets03:14:37  +  00:07:25=32,988 
43 CHEBruno CariniFRACadets03:14:37  +  00:07:25=32,988 
44 FRALucien Le GuevelFRABluets03:14:37  +  00:07:25=32,988 
45 ITAOreste BernardoniFRABluets03:14:37  +  00:07:25=32,988 
46 ITADante GianelloFRABluets03:14:37  +  00:07:25=32,988 
47 FRACamille LeroyFRABluets03:14:37  +  00:07:25=32,988 
48 DEUOtto WeckerlingDEUGermany03:15:08  +  00:07:56=32,901 
49 BELRene WalschotBELBelgium03:20:00  +  00:12:48=32,100 
50 ITAEnrico MolloITAItaly03:23:31  +  00:16:19=31,545 
51 ITALuigi IntrozziITAItaly03:23:31  +  00:16:19=31,545 
52 ITAGiordano CotturITAItaly03:23:31  +  00:16:19=31,545 
53 FRAAlbert BourlonFRABluets03:23:31  +  00:16:19=31,545 
54 FRAYvan MarieFRACadets03:23:31  +  00:16:19=31,545 
55 ITANello TroggiITAItaly03:38:57  +  00:31:45=29,322 


Todays birthdays.

1899  Ardito Bresciani
1908  Renato Scorticati
1927  Marcel Huber
1941  Roger Cooreman
1942  Luis Santamarina
1952  Ferdi Van den Haute
1956  Graziano Salvietti
1961  Massimo Ghirotto
1963  Thierry Marie
1968  Dominik Krieger
1979  Sébastien Joly
1981  Yohann Gène
1982  William Bonnet
1986  Marcel Wyss
1987  Rafael Valls Ferri
1988  Egor Silin